Regional Weather Roundup
Issued by NWS Upton, NY

Current Version | Previous Version | Text Only | Print | Product List | Glossary Off
Versions: 1 2 3 4 5 6 7 8 9 10 11 12 13 14 15 16 17 18 19 20 21 22 23 24 25 26 27 28 29 30 31 32 33 34 35 36 37 38 39 40 41 42 43 44 45 46 47 48 49 50
000 ASUS41 KOKX 050004 RWROKX REGIONAL WEATHER ROUNDUP NATIONAL WEATHER SERVICE NEW YORK NY 800 PM EDT FRI SEP 04 2015 NOTE: "FAIR" INDICATES FEW OR NO CLOUDS BELOW 12,000 FEET WITH NO SIGNIFICANT WEATHER AND/OR OBSTRUCTIONS TO VISIBILITY. NYZ071-072-176-178-NJZ106-104-050100- NEW YORK CITY METRO AREA CITY SKY/WX TMP DP RH WIND PRES REMARKS CENTRAL PARK FAIR 79 64 60 SE7 30.16R LAGUARDIA APRT FAIR 78 64 61 SE9 30.13R KENNEDY INTL FAIR 75 62 64 E14 30.15R NEWARK/LIBERTY FAIR 77 65 66 SE6 30.13R BRNX BOT. GARD N/A 75 63 64 E3 30.14R TETERBORO FAIR 79 60 52 E5 30.12R $$ NYZ177-179-078>081-050100- LONG ISLAND NEW YORK CITY SKY/WX TMP DP RH WIND PRES REMARKS FARMINGDALE FAIR 74 63 68 E8 30.15R ISLIP FAIR 73 63 70 E9 30.14R SHIRLEY FAIR 72 64 76 SE3 30.16R WESTHAMPTON FAIR 72 63 73 E7 30.17R MONTAUK POINT N/A 70 62 76 NE9G22 30.19R $$ NYZ052-065-067-050100- HUDSON VALLEY CITY SKY/WX TMP DP RH WIND PRES REMARKS WHITE PLAINS FAIR 74 63 68 E5 30.16R NEWBURGH PTCLDY 77 66 69 E9 30.17R MONTGOMERY CLOUDY 76 68 76 NE5 30.15R POUGHKEEPSIE FAIR 76 63 64 E3 30.14R ALBANY FAIR 77 61 57 SE5 30.16R $$ NJZ001-105-106-008-010-013-015-019>022-104-050100- NEW JERSEY CITY SKY/WX TMP DP RH WIND PRES REMARKS NEWARK/LIBERTY FAIR 77 65 66 SE6 30.13R TETERBORO FAIR 79 60 52 E5 30.12R CALDWELL MOCLDY 78 62 57 E5 30.14R MORRISTOWN PTCLDY 77 68 73 S6 30.14R SOMERVILLE FAIR 75 65 70 CALM 30.12R SUSSEX FAIR 72 66 81 CALM 30.15R ANDOVER N/A 71 65 81 CALM 30.16R TRENTON FAIR 74 64 71 SE10 30.13R MILLVILLE MOCLDY 76 68 76 NE13 30.10R ATLANTIC CITY CLOUDY 75 68 78 E12 30.10R WRIGHTSTOWN CLOUDY 73 68 84 E6 30.11R TOMS RIVER CLOUDY 73 66 78 E6 30.13R BELMAR CLOUDY 73 63 68 E13 30.14R $$ PAZ047>061-062-071-050100- EASTERN PENNSYLVANIA CITY SKY/WX TMP DP RH WIND PRES REMARKS PHILADELPHIA MOCLDY 78 66 66 E12 30.12R ALLENTOWN FAIR 79 67 66 SE7 30.12R SCRANTON FAIR 77 67 71 VRB6 30.14R $$ CTZ002-004>006-009-010-012-RIZ004-006-007-MAZ004-011-015-050100- SOUTHERN NEW ENGLAND IN CT CITY SKY/WX TMP DP RH WIND PRES REMARKS BRADLEY INTL FAIR 73 58 59 NE7 30.17R HARTFORD FAIR 75 60 59 E3 30.17R DANBURY FAIR 73 62 68 SE8 30.18R WTRBRY/OXFORD CLEAR 72 59 64 CALM 30.20R BRIDGEPORT FAIR 76 64 66 E12 30.15R MERIDEN FAIR 77 58 51 NE5 30.16R NEW HAVEN FAIR 74 64 71 E12 30.17R CHESTER NOT AVBL GROTON FAIR 70 61 73 NE9 30.17R WILLIMANTIC FAIR 71 56 58 E9 30.19R IN RI CITY SKY/WX TMP DP RH WIND PRES REMARKS PROVIDENCE FAIR 66 58 75 NE10 30.21R BLOCK ISLAND FAIR 68 61 77 NE15 30.18R WESTERLY FAIR 69 59 70 NE7 30.19R IN MA CITY SKY/WX TMP DP RH WIND PRES REMARKS BOSTON FAIR 63 59 87 E5 30.23S WORCESTER FAIR 65 55 70 E9 30.24R WESTFIELD MOCLDY 73 56 54 E5 30.19R PROVINCETOWN N/A 64 55 72 NE12 30.22R NANTUCKET N/A 64 61 90 MISG N/A $$ ANZ330-335-338-340-345-350-353-355-050100- COASTAL MARINE OBSERVATIONS STATION/POSITION TIME SKY/WX TEMP WIND PRES VSBY WAVE AIR SEA DIR/SP/G HT/PER (UTC) (F) (DEG/KT/KT) (MB) (MI) (FT/S) NY HARB ENTRANCE 2250 74 77 90/ 19/ 23 1019.1 5/ 6 4S FIRE IS NOT AVBL 20S FIRE ISLAND 2250 73 75 80/ 21/ 25 1019.1 6/ 6 GREAT SOUTH BAY 2315 73 80 120/ 17/ 21 N/A 23SW MTP 2350 70 74 60/ 21/ 23 1020.4 5/ 6 HUDSON CANYON NOT AVBL KINGS POINT 2300 79 74 50/ 2/ 4 1019.1 EXECUTION ROCKS 2300 78 80/ 10/ 12 N/A CENTRAL LI SOUND NOT AVBL EASTERN LI SOUND 2300 72 71 70/ 16/ 19 N/A ROBBINS REEF 2300 76 120/ 16/ 18 1018.6 $$ >>>>>>>>>>>>>>>>>>>>>>>>>>>> KEY <<<<<<<<<<<<<<<<<<<<<<<<<<< > < > SKY/WX - SKY CONDITION/PRESENT WEATHER < > TMP - TEMPERATURE IN FAHRENHEIT < > DP - DEWPOINT IN FAHRENHEIT < > RH - RELATIVE HUMIDITY IN PERCENT < > WIND - DIRECTION AND SPEED IN MPH < > PRES - MEAN SEA LEVEL PRESSURE IN INCHES OF HG < > WCI - WIND CHILL INDEX < > VSB - VISIBILITY IN MILES < > HX - HEAT INDEX < > TC - TEMPERATURE IN CELSIUS < > VRB - VARIABLE WIND DIRECTION < > < >>>>>>>>>>>>>>>>>>>>>>>>>>>> KEY <<<<<<<<<<<<<<<<<<<<<<<<<<<

USA.gov is the U.S. government's official web portal to all federal, state and local government web resources and services.